Year,Month,Day,Hour,Minute,Value (Times are PST for temperature in C)
2009,06,03,00,00,18.20
2009,06,03,00,01,18.20
2009,06,03,00,02,18.20
2009,06,03,00,03,18.20
2009,06,03,00,04,18.20
2009,06,03,00,05,18.20
2009,06,03,00,06,18.20
2009,06,03,00,07,18.20
2009,06,03,00,08,18.20
2009,06,03,00,09,18.20
2009,06,03,00,10,18.20
2009,06,03,00,11,18.20
2009,06,03,00,12,18.10
2009,06,03,00,13,18.10
2009,06,03,00,14,18.10
2009,06,03,00,15,18.10
2009,06,03,00,16,18.10
2009,06,03,00,17,18.10
2009,06,03,00,18,18.10
2009,06,03,00,19,18.10
2009,06,03,00,20,18.10
2009,06,03,00,21,18.10
2009,06,03,00,22,18.10
2009,06,03,00,23,18.00
2009,06,03,00,24,17.90
2009,06,03,00,25,17.90
2009,06,03,00,26,17.90
2009,06,03,00,27,17.90
2009,06,03,00,28,17.90
2009,06,03,00,29,17.90
2009,06,03,00,30,17.90
2009,06,03,00,31,17.90
2009,06,03,00,32,17.90
2009,06,03,00,33,17.90
2009,06,03,00,34,17.90
2009,06,03,00,35,17.90
2009,06,03,00,36,17.90
2009,06,03,00,37,17.90
2009,06,03,00,38,17.90
2009,06,03,00,39,17.90
2009,06,03,00,40,17.90
2009,06,03,00,41,17.90
2009,06,03,00,42,17.90
2009,06,03,00,43,17.90
2009,06,03,00,44,17.80
2009,06,03,00,45,17.80
2009,06,03,00,46,17.80
2009,06,03,00,47,17.80
2009,06,03,00,48,17.80
2009,06,03,00,49,17.70
2009,06,03,00,50,17.70
2009,06,03,00,51,17.60
2009,06,03,00,52,17.60
2009,06,03,00,53,17.50
2009,06,03,00,54,17.50
2009,06,03,00,55,17.40
2009,06,03,00,56,17.40
2009,06,03,00,57,17.30
2009,06,03,00,58,17.30
2009,06,03,00,59,17.30
2009,06,03,01,00,17.20
2009,06,03,01,01,17.20
2009,06,03,01,02,17.10
2009,06,03,01,03,17.10
2009,06,03,01,04,17.00
2009,06,03,01,05,17.00
2009,06,03,01,06,17.00
2009,06,03,01,07,16.90
2009,06,03,01,08,16.90
2009,06,03,01,09,16.80
2009,06,03,01,10,16.80
2009,06,03,01,11,16.70
2009,06,03,01,12,16.70
2009,06,03,01,13,16.70
2009,06,03,01,14,16.70
2009,06,03,01,15,16.60
2009,06,03,01,16,16.60
2009,06,03,01,17,16.60
2009,06,03,01,18,16.50
2009,06,03,01,19,16.40
2009,06,03,01,20,16.40
2009,06,03,01,21,16.40
2009,06,03,01,22,16.40
2009,06,03,01,23,16.40
2009,06,03,01,24,16.40
2009,06,03,01,25,16.40
2009,06,03,01,26,16.40
2009,06,03,01,27,16.30
2009,06,03,01,28,16.30
2009,06,03,01,29,16.30
2009,06,03,01,30,16.30
2009,06,03,01,31,16.30
2009,06,03,01,32,16.30
2009,06,03,01,33,16.20
2009,06,03,01,34,16.20
2009,06,03,01,35,16.20
2009,06,03,01,36,16.30
2009,06,03,01,37,16.30
2009,06,03,01,38,16.30
2009,06,03,01,39,16.30
2009,06,03,01,40,16.30
2009,06,03,01,41,16.40
2009,06,03,01,42,16.40
2009,06,03,01,43,16.40
2009,06,03,01,44,16.40
2009,06,03,01,45,16.40
2009,06,03,01,46,16.40
2009,06,03,01,47,16.40
2009,06,03,01,48,16.40
2009,06,03,01,49,16.40
2009,06,03,01,50,16.40
2009,06,03,01,51,16.40
2009,06,03,01,52,16.40
2009,06,03,01,53,16.40
2009,06,03,01,54,16.40
2009,06,03,01,55,16.40
2009,06,03,01,56,16.40
2009,06,03,01,57,16.40
2009,06,03,01,58,16.40
2009,06,03,01,59,16.50
2009,06,03,02,00,16.60
2009,06,03,02,01,16.60
2009,06,03,02,02,16.60
2009,06,03,02,03,16.60
2009,06,03,02,04,16.60
2009,06,03,02,05,16.60
2009,06,03,02,06,16.60
2009,06,03,02,07,16.70
2009,06,03,02,08,16.70
2009,06,03,02,09,16.70
2009,06,03,02,10,16.70
2009,06,03,02,11,16.70
2009,06,03,02,12,16.70
2009,06,03,02,13,16.70
2009,06,03,02,14,16.80
2009,06,03,02,15,16.80
2009,06,03,02,16,16.80
2009,06,03,02,17,16.80
2009,06,03,02,18,16.80
2009,06,03,02,19,16.80
2009,06,03,02,20,16.90
2009,06,03,02,21,16.90
2009,06,03,02,22,16.90
2009,06,03,02,23,17.00
2009,06,03,02,24,17.00
2009,06,03,02,25,17.00
2009,06,03,02,26,17.10
2009,06,03,02,27,17.10
2009,06,03,02,28,17.20
2009,06,03,02,29,17.20
2009,06,03,02,30,17.30
2009,06,03,02,31,17.30
2009,06,03,02,32,17.30
2009,06,03,02,33,17.30
2009,06,03,02,34,17.20
2009,06,03,02,35,17.20
2009,06,03,02,36,17.10
2009,06,03,02,37,17.10
2009,06,03,02,38,17.00
2009,06,03,02,39,17.00
2009,06,03,02,40,16.90
2009,06,03,02,41,16.90
2009,06,03,02,42,16.90
2009,06,03,02,43,16.80
2009,06,03,02,44,16.80
2009,06,03,02,45,16.70
2009,06,03,02,46,16.70
2009,06,03,02,47,16.60
2009,06,03,02,48,16.50
2009,06,03,02,49,16.40
2009,06,03,02,50,16.40
2009,06,03,02,51,16.30
2009,06,03,02,52,16.30
2009,06,03,02,53,16.20
2009,06,03,02,54,16.10
2009,06,03,02,55,16.10
2009,06,03,02,56,16.00
2009,06,03,02,57,15.90
2009,06,03,02,58,15.80
2009,06,03,02,59,15.80
2009,06,03,03,00,15.70
2009,06,03,03,01,15.60
2009,06,03,03,02,15.60
2009,06,03,03,03,15.50
2009,06,03,03,04,15.50
2009,06,03,03,05,15.40
2009,06,03,03,06,15.40
2009,06,03,03,07,15.30
2009,06,03,03,08,15.30
2009,06,03,03,09,15.30
2009,06,03,03,10,15.30
2009,06,03,03,11,15.30
2009,06,03,03,12,15.20
2009,06,03,03,13,15.20
2009,06,03,03,14,15.10
2009,06,03,03,15,15.10
2009,06,03,03,16,15.10
2009,06,03,03,17,15.00
2009,06,03,03,18,15.00
2009,06,03,03,19,15.00
2009,06,03,03,20,15.00
2009,06,03,03,21,15.00
2009,06,03,03,22,15.10
2009,06,03,03,23,15.10
2009,06,03,03,24,15.20
2009,06,03,03,25,15.20
2009,06,03,03,26,15.30
2009,06,03,03,27,15.30
2009,06,03,03,28,15.40
2009,06,03,03,29,15.50
2009,06,03,03,30,15.50
2009,06,03,03,31,15.60
2009,06,03,03,32,15.60
2009,06,03,03,33,15.70
2009,06,03,03,34,15.70
2009,06,03,03,35,15.70
2009,06,03,03,36,15.80
2009,06,03,03,37,15.80
2009,06,03,03,38,15.80
2009,06,03,03,39,15.80
2009,06,03,03,40,15.80
2009,06,03,03,41,15.80
2009,06,03,03,42,15.90
2009,06,03,03,43,15.90
2009,06,03,03,44,15.90
2009,06,03,03,45,15.90
2009,06,03,03,46,15.90
2009,06,03,03,47,15.90
2009,06,03,03,48,15.90
2009,06,03,03,49,15.90
2009,06,03,03,50,15.90
2009,06,03,03,51,15.80
2009,06,03,03,52,15.80
2009,06,03,03,53,15.80
2009,06,03,03,54,15.80
2009,06,03,03,55,15.80
2009,06,03,03,56,15.80
2009,06,03,03,57,15.80
2009,06,03,03,58,15.80
2009,06,03,03,59,15.80
2009,06,03,04,00,15.80
2009,06,03,04,01,15.80
2009,06,03,04,02,15.80
2009,06,03,04,03,15.80
2009,06,03,04,04,15.80
2009,06,03,04,05,15.80
2009,06,03,04,06,15.80
2009,06,03,04,07,15.80
2009,06,03,04,08,15.80
2009,06,03,04,09,15.80
2009,06,03,04,10,15.80
2009,06,03,04,11,15.80
2009,06,03,04,12,15.80
2009,06,03,04,13,15.70
2009,06,03,04,14,15.60
2009,06,03,04,15,15.60
2009,06,03,04,16,15.60
2009,06,03,04,17,15.60
2009,06,03,04,18,15.50
2009,06,03,04,19,15.50
2009,06,03,04,20,15.50
2009,06,03,04,21,15.50
2009,06,03,04,22,15.50
2009,06,03,04,23,15.50
2009,06,03,04,24,15.40
2009,06,03,04,25,15.40
2009,06,03,04,26,15.40
2009,06,03,04,27,15.30
2009,06,03,04,28,15.30
2009,06,03,04,29,15.30
2009,06,03,04,30,15.30
2009,06,03,04,31,15.30
2009,06,03,04,32,15.20
2009,06,03,04,33,15.20
2009,06,03,04,34,15.20
2009,06,03,04,35,15.10
2009,06,03,04,36,15.00
2009,06,03,04,37,15.00
2009,06,03,04,38,14.90
2009,06,03,04,39,14.90
2009,06,03,04,40,14.90
2009,06,03,04,41,14.90
2009,06,03,04,42,14.90
2009,06,03,04,43,14.90
2009,06,03,04,44,14.90
2009,06,03,04,45,15.00
2009,06,03,04,46,15.00
2009,06,03,04,47,15.00
2009,06,03,04,48,15.10
2009,06,03,04,49,15.20
2009,06,03,04,50,15.20
2009,06,03,04,51,15.30
2009,06,03,04,52,15.30
2009,06,03,04,53,15.40
2009,06,03,04,54,15.40
2009,06,03,04,55,15.50
2009,06,03,04,56,15.50
2009,06,03,04,57,15.50
2009,06,03,04,58,15.50
2009,06,03,04,59,15.50
2009,06,03,05,00,15.50
2009,06,03,05,01,15.50
2009,06,03,05,02,15.50
2009,06,03,05,03,15.50
2009,06,03,05,04,15.50
2009,06,03,05,05,15.50
2009,06,03,05,06,15.50
2009,06,03,05,07,15.50
2009,06,03,05,08,15.40
2009,06,03,05,09,15.40
2009,06,03,05,10,15.40
2009,06,03,05,11,15.30
2009,06,03,05,12,15.30
2009,06,03,05,13,15.30
2009,06,03,05,14,15.30
2009,06,03,05,15,15.30
2009,06,03,05,16,15.30
2009,06,03,05,17,15.40
2009,06,03,05,18,15.40
2009,06,03,05,19,15.50
2009,06,03,05,20,15.50
2009,06,03,05,21,15.60
2009,06,03,05,22,15.60
2009,06,03,05,23,15.70
2009,06,03,05,24,15.80
2009,06,03,05,25,15.90
2009,06,03,05,26,16.00
2009,06,03,05,27,16.10
2009,06,03,05,28,16.20
2009,06,03,05,29,16.30
2009,06,03,05,30,16.40
2009,06,03,05,31,16.40
2009,06,03,05,32,16.60
2009,06,03,05,33,16.70
2009,06,03,05,34,16.70
2009,06,03,05,35,16.70
2009,06,03,05,36,16.80
2009,06,03,05,37,16.90
2009,06,03,05,38,16.90
2009,06,03,05,39,17.00
2009,06,03,05,40,17.10
2009,06,03,05,41,17.10
2009,06,03,05,42,17.10
2009,06,03,05,43,17.10
2009,06,03,05,44,17.10
2009,06,03,05,45,17.20
2009,06,03,05,46,17.20
2009,06,03,05,47,17.30
2009,06,03,05,48,17.30
2009,06,03,05,49,17.30
2009,06,03,05,50,17.40
2009,06,03,05,51,17.40
2009,06,03,05,52,17.50
2009,06,03,05,53,17.50
2009,06,03,05,54,17.60
2009,06,03,05,55,17.60
2009,06,03,05,56,17.70
2009,06,03,05,57,17.80
2009,06,03,05,58,17.80
2009,06,03,05,59,17.80
2009,06,03,06,00,17.80
2009,06,03,06,01,17.80
2009,06,03,06,02,17.80
2009,06,03,06,03,17.80
2009,06,03,06,04,17.70
2009,06,03,06,05,17.70
2009,06,03,06,06,17.60
2009,06,03,06,07,17.60
2009,06,03,06,08,17.60
2009,06,03,06,09,17.60
2009,06,03,06,10,17.50
2009,06,03,06,11,17.50
2009,06,03,06,12,17.40
2009,06,03,06,13,17.20
2009,06,03,06,14,17.10
2009,06,03,06,15,16.90
2009,06,03,06,16,16.80
2009,06,03,06,17,16.60
2009,06,03,06,18,16.50
2009,06,03,06,19,16.40
2009,06,03,06,20,16.40
2009,06,03,06,21,16.30
2009,06,03,06,22,16.30
2009,06,03,06,23,16.30
2009,06,03,06,24,16.20
2009,06,03,06,25,16.20
2009,06,03,06,26,16.20
2009,06,03,06,27,16.20
2009,06,03,06,28,16.20
2009,06,03,06,29,16.20
2009,06,03,06,30,16.20
2009,06,03,06,31,16.20
2009,06,03,06,32,16.20
2009,06,03,06,33,16.20
2009,06,03,06,34,16.20
2009,06,03,06,35,16.20
2009,06,03,06,36,16.20
2009,06,03,06,37,16.20
2009,06,03,06,38,16.20
2009,06,03,06,39,16.20
2009,06,03,06,40,16.20
2009,06,03,06,41,16.20
2009,06,03,06,42,16.20
2009,06,03,06,43,16.20
2009,06,03,06,44,16.30
2009,06,03,06,45,16.30
2009,06,03,06,46,16.30
2009,06,03,06,47,16.30
2009,06,03,06,48,16.40
2009,06,03,06,49,16.40
2009,06,03,06,50,16.40
2009,06,03,06,51,16.40
2009,06,03,06,52,16.40
2009,06,03,06,53,16.40
2009,06,03,06,54,16.50
2009,06,03,06,55,16.60
2009,06,03,06,56,16.70
2009,06,03,06,57,16.70
2009,06,03,06,58,16.70
2009,06,03,06,59,16.80
2009,06,03,07,00,16.80
2009,06,03,07,01,16.90
2009,06,03,07,02,17.00
2009,06,03,07,03,17.10
2009,06,03,07,04,17.20
2009,06,03,07,05,17.30
2009,06,03,07,06,17.30
2009,06,03,07,07,17.40
2009,06,03,07,08,17.50
2009,06,03,07,09,17.60
2009,06,03,07,10,17.70
2009,06,03,07,11,17.80
2009,06,03,07,12,17.90
2009,06,03,07,13,17.90
2009,06,03,07,14,18.00
2009,06,03,07,15,18.10
2009,06,03,07,16,18.20
2009,06,03,07,17,18.20
2009,06,03,07,18,18.20
2009,06,03,07,19,18.20
2009,06,03,07,20,18.30
2009,06,03,07,21,18.30
2009,06,03,07,22,18.40
2009,06,03,07,23,18.40
2009,06,03,07,24,18.50
2009,06,03,07,25,18.60
2009,06,03,07,26,18.60
2009,06,03,07,27,18.70
2009,06,03,07,28,18.70
2009,06,03,07,29,18.80
2009,06,03,07,30,18.90
2009,06,03,07,31,18.90
2009,06,03,07,32,19.00
2009,06,03,07,33,19.10
2009,06,03,07,34,19.10
2009,06,03,07,35,19.20
2009,06,03,07,36,19.30
2009,06,03,07,37,19.30
2009,06,03,07,38,19.40
2009,06,03,07,39,19.40
2009,06,03,07,40,19.50
2009,06,03,07,41,19.60
2009,06,03,07,42,19.70
2009,06,03,07,43,19.80
2009,06,03,07,44,20.00
2009,06,03,07,45,20.20
2009,06,03,07,46,20.30
2009,06,03,07,47,20.40
2009,06,03,07,48,20.60
2009,06,03,07,49,20.70
2009,06,03,07,50,20.80
2009,06,03,07,51,20.90
2009,06,03,07,52,21.00
2009,06,03,07,53,21.10
2009,06,03,07,54,21.20
2009,06,03,07,55,21.30
2009,06,03,07,56,21.30
2009,06,03,07,57,21.30
2009,06,03,07,58,21.30
2009,06,03,07,59,21.40
2009,06,03,08,00,21.40
2009,06,03,08,01,21.50
2009,06,03,08,02,21.60
2009,06,03,08,03,21.60
2009,06,03,08,04,21.60
2009,06,03,08,05,21.60
2009,06,03,08,06,21.70
2009,06,03,08,07,21.80
2009,06,03,08,08,21.80
2009,06,03,08,09,21.90
2009,06,03,08,10,21.90
2009,06,03,08,11,21.90
2009,06,03,08,12,21.80
2009,06,03,08,13,21.80
2009,06,03,08,14,21.90
2009,06,03,08,15,21.90
2009,06,03,08,16,22.00
2009,06,03,08,17,22.00
2009,06,03,08,18,22.00
2009,06,03,08,19,22.00
2009,06,03,08,20,22.10
2009,06,03,08,21,22.10
2009,06,03,08,22,22.10
2009,06,03,08,23,22.20
2009,06,03,08,24,22.30
2009,06,03,08,25,22.30
2009,06,03,08,26,22.30
2009,06,03,08,27,22.30
2009,06,03,08,28,22.40
2009,06,03,08,29,22.40
2009,06,03,08,30,22.50
2009,06,03,08,31,22.50
2009,06,03,08,32,22.60
2009,06,03,08,33,22.60
2009,06,03,08,34,22.60
2009,06,03,08,35,22.60
2009,06,03,08,36,22.60
2009,06,03,08,37,22.60
2009,06,03,08,38,22.60
2009,06,03,08,39,22.60
2009,06,03,08,40,22.70
2009,06,03,08,41,22.70
2009,06,03,08,42,22.70
2009,06,03,08,43,22.80
2009,06,03,08,44,22.90
2009,06,03,08,45,22.90
2009,06,03,08,46,23.00
2009,06,03,08,47,23.10
2009,06,03,08,48,23.10
2009,06,03,08,49,23.10
2009,06,03,08,50,23.20
2009,06,03,08,51,23.20
2009,06,03,08,52,23.20
2009,06,03,08,53,23.20
2009,06,03,08,54,23.20
2009,06,03,08,55,23.20
2009,06,03,08,56,23.20
2009,06,03,08,57,23.10
2009,06,03,08,58,23.10
2009,06,03,08,59,23.10
2009,06,03,09,00,23.10
2009,06,03,09,01,23.10
2009,06,03,09,02,23.10
2009,06,03,09,03,23.10
2009,06,03,09,04,23.10
2009,06,03,09,05,23.20
2009,06,03,09,06,23.20
2009,06,03,09,07,23.30
2009,06,03,09,08,23.30
2009,06,03,09,09,23.30
2009,06,03,09,10,23.30
2009,06,03,09,11,23.30
2009,06,03,09,12,23.30
2009,06,03,09,13,23.30
2009,06,03,09,14,23.30
2009,06,03,09,15,23.30
2009,06,03,09,16,23.40
2009,06,03,09,17,23.40
2009,06,03,09,18,23.40
2009,06,03,09,19,23.40
2009,06,03,09,20,23.50
2009,06,03,09,21,23.60
2009,06,03,09,22,23.60
2009,06,03,09,23,23.70
2009,06,03,09,24,23.80
2009,06,03,09,25,23.90
2009,06,03,09,26,23.90
2009,06,03,09,27,23.90
2009,06,03,09,28,24.00
2009,06,03,09,29,24.00
2009,06,03,09,30,24.10
2009,06,03,09,31,24.00
2009,06,03,09,32,23.90
2009,06,03,09,33,23.90
2009,06,03,09,34,23.90
2009,06,03,09,35,23.90
2009,06,03,09,36,23.90
2009,06,03,09,37,24.00
2009,06,03,09,38,24.10
2009,06,03,09,39,24.10
2009,06,03,09,40,24.10
2009,06,03,09,41,24.20
2009,06,03,09,42,24.10
2009,06,03,09,43,24.10
2009,06,03,09,44,24.10
2009,06,03,09,45,24.20
2009,06,03,09,46,24.30
2009,06,03,09,47,24.30
2009,06,03,09,48,24.30
2009,06,03,09,49,24.30
2009,06,03,09,50,24.30
2009,06,03,09,51,24.30
2009,06,03,09,52,24.30
2009,06,03,09,53,24.40
2009,06,03,09,54,24.40
2009,06,03,09,55,24.40
2009,06,03,09,56,24.40
2009,06,03,09,57,24.40
2009,06,03,09,58,24.40
2009,06,03,09,59,24.40
2009,06,03,10,00,24.50
2009,06,03,10,01,24.60
2009,06,03,10,02,24.80
2009,06,03,10,03,25.00
2009,06,03,10,04,25.10
2009,06,03,10,05,25.30
2009,06,03,10,06,25.30
2009,06,03,10,07,25.40
2009,06,03,10,08,25.40
2009,06,03,10,09,25.40
2009,06,03,10,10,25.30
2009,06,03,10,11,25.20
2009,06,03,10,12,25.10
2009,06,03,10,13,25.00
2009,06,03,10,14,24.90
2009,06,03,10,15,24.90
2009,06,03,10,16,25.10
2009,06,03,10,17,25.20
2009,06,03,10,18,25.40
2009,06,03,10,19,25.60
2009,06,03,10,20,25.70
2009,06,03,10,21,25.80
2009,06,03,10,22,25.80
2009,06,03,10,23,25.80
2009,06,03,10,24,25.90
2009,06,03,10,25,25.90
2009,06,03,10,26,25.90
2009,06,03,10,27,25.90
2009,06,03,10,28,25.90
2009,06,03,10,29,26.00
2009,06,03,10,30,26.10
2009,06,03,10,31,26.10
2009,06,03,10,32,26.20
2009,06,03,10,33,26.30
2009,06,03,10,34,26.50
2009,06,03,10,35,26.60
2009,06,03,10,36,26.70
2009,06,03,10,37,26.70
2009,06,03,10,38,26.70
2009,06,03,10,39,26.60
2009,06,03,10,40,26.60
2009,06,03,10,41,26.60
2009,06,03,10,42,26.60
2009,06,03,10,43,26.60
2009,06,03,10,44,26.60
2009,06,03,10,45,26.60
2009,06,03,10,46,26.60
2009,06,03,10,47,26.60
2009,06,03,10,48,26.60
2009,06,03,10,49,26.60
2009,06,03,10,50,26.50
2009,06,03,10,51,26.40
2009,06,03,10,52,26.30
2009,06,03,10,53,26.30
2009,06,03,10,54,26.30
2009,06,03,10,55,26.30
2009,06,03,10,56,26.20
2009,06,03,10,57,26.20
2009,06,03,10,58,26.10
2009,06,03,10,59,26.10
2009,06,03,11,00,26.20
2009,06,03,11,01,26.20
2009,06,03,11,02,26.30
2009,06,03,11,03,26.40
2009,06,03,11,04,26.50
2009,06,03,11,05,26.60
2009,06,03,11,06,26.70
2009,06,03,11,07,26.80
2009,06,03,11,08,26.80
2009,06,03,11,09,26.80
2009,06,03,11,10,26.90
2009,06,03,11,11,26.90
2009,06,03,11,12,26.80
2009,06,03,11,13,26.80
2009,06,03,11,14,26.70
2009,06,03,11,15,26.70
2009,06,03,11,16,26.70
2009,06,03,11,17,26.60
2009,06,03,11,18,26.60
2009,06,03,11,19,26.60
2009,06,03,11,20,26.60
2009,06,03,11,21,26.60
2009,06,03,11,22,26.60
2009,06,03,11,23,26.70
2009,06,03,11,24,26.80
2009,06,03,11,25,26.90
2009,06,03,11,26,26.90
2009,06,03,11,27,26.90
2009,06,03,11,28,26.90
2009,06,03,11,29,26.90
2009,06,03,11,30,26.90
2009,06,03,11,31,26.90
2009,06,03,11,32,26.90
2009,06,03,11,33,27.10
2009,06,03,11,34,27.20
2009,06,03,11,35,27.30
2009,06,03,11,36,27.30
2009,06,03,11,37,27.30
2009,06,03,11,38,27.30
2009,06,03,11,39,27.30
2009,06,03,11,40,27.30
2009,06,03,11,41,27.40
2009,06,03,11,42,27.40
2009,06,03,11,43,27.50
2009,06,03,11,44,27.60
2009,06,03,11,45,27.60
2009,06,03,11,46,27.70
2009,06,03,11,47,27.80
2009,06,03,11,48,27.80
2009,06,03,11,49,27.70
2009,06,03,11,50,27.70
2009,06,03,11,51,27.60
2009,06,03,11,52,27.60
2009,06,03,11,53,27.60
2009,06,03,11,54,27.60
2009,06,03,11,55,27.60
2009,06,03,11,56,27.50
2009,06,03,11,57,27.60
2009,06,03,11,58,27.60
2009,06,03,11,59,27.40
2009,06,03,12,00,27.40
2009,06,03,12,01,27.40
2009,06,03,12,02,27.40
2009,06,03,12,03,27.30
2009,06,03,12,04,27.40
2009,06,03,12,05,27.50
2009,06,03,12,06,27.70
2009,06,03,12,07,27.90
2009,06,03,12,08,28.10
2009,06,03,12,09,28.30
2009,06,03,12,10,28.50
2009,06,03,12,11,28.70
2009,06,03,12,12,28.80
2009,06,03,12,13,28.90
2009,06,03,12,14,28.90
2009,06,03,12,15,28.90
2009,06,03,12,16,28.90
2009,06,03,12,17,28.90
2009,06,03,12,18,28.80
2009,06,03,12,19,28.70
2009,06,03,12,20,28.70
2009,06,03,12,21,28.60
2009,06,03,12,22,28.60
2009,06,03,12,23,28.50
2009,06,03,12,24,28.40
2009,06,03,12,25,28.30
2009,06,03,12,26,28.30
2009,06,03,12,27,28.40
2009,06,03,12,28,28.50
2009,06,03,12,29,28.60
2009,06,03,12,30,28.70
2009,06,03,12,31,28.70
2009,06,03,12,32,28.80
2009,06,03,12,33,28.70
2009,06,03,12,34,28.70
2009,06,03,12,35,28.80
2009,06,03,12,36,28.90
2009,06,03,12,37,28.90
2009,06,03,12,38,28.70
2009,06,03,12,39,28.50
2009,06,03,12,40,28.60
2009,06,03,12,41,28.60
2009,06,03,12,42,28.70
2009,06,03,12,43,28.80
2009,06,03,12,44,28.90
2009,06,03,12,45,28.90
2009,06,03,12,46,28.90
2009,06,03,12,47,28.90
2009,06,03,12,48,28.80
2009,06,03,12,49,28.70
2009,06,03,12,50,28.50
2009,06,03,12,51,28.30
2009,06,03,12,52,28.10
2009,06,03,12,53,27.90
2009,06,03,12,54,27.70
2009,06,03,12,55,27.70
2009,06,03,12,56,27.70
2009,06,03,12,57,27.80
2009,06,03,12,58,27.80
2009,06,03,12,59,27.80
2009,06,03,13,00,27.80
2009,06,03,13,01,27.80
2009,06,03,13,02,27.80
2009,06,03,13,03,27.80
2009,06,03,13,04,27.80
2009,06,03,13,05,27.80
2009,06,03,13,06,27.80
2009,06,03,13,07,27.70
2009,06,03,13,08,27.60
2009,06,03,13,09,27.40
2009,06,03,13,10,27.30
2009,06,03,13,11,27.20
2009,06,03,13,12,27.10
2009,06,03,13,13,27.20
2009,06,03,13,14,27.20
2009,06,03,13,15,27.30
2009,06,03,13,16,27.60
2009,06,03,13,17,27.70
2009,06,03,13,18,27.80
2009,06,03,13,19,27.80
2009,06,03,13,20,27.80
2009,06,03,13,21,27.90
2009,06,03,13,22,28.00
2009,06,03,13,23,28.10
2009,06,03,13,24,28.30
2009,06,03,13,25,28.50
2009,06,03,13,26,28.60
2009,06,03,13,27,28.60
2009,06,03,13,28,28.50
2009,06,03,13,29,28.50
2009,06,03,13,30,28.60
2009,06,03,13,31,28.60
2009,06,03,13,32,28.80
2009,06,03,13,33,28.90
2009,06,03,13,34,29.00
2009,06,03,13,35,29.10
2009,06,03,13,36,29.10
2009,06,03,13,37,29.20
2009,06,03,13,38,29.20
2009,06,03,13,39,29.20
2009,06,03,13,40,29.20
2009,06,03,13,41,29.30
2009,06,03,13,42,29.30
2009,06,03,13,43,29.20
2009,06,03,13,44,29.20
2009,06,03,13,45,29.00
2009,06,03,13,46,28.90
2009,06,03,13,47,28.90
2009,06,03,13,48,28.90
2009,06,03,13,49,28.90
2009,06,03,13,50,28.90
2009,06,03,13,51,28.90
2009,06,03,13,52,28.70
2009,06,03,13,53,28.70
2009,06,03,13,54,28.80
2009,06,03,13,55,28.80
2009,06,03,13,56,28.80
2009,06,03,13,57,28.90
2009,06,03,13,58,29.00
2009,06,03,13,59,29.10
2009,06,03,14,00,29.20
2009,06,03,14,01,29.30
2009,06,03,14,02,29.30
2009,06,03,14,03,29.40
2009,06,03,14,04,29.40
2009,06,03,14,05,29.50
2009,06,03,14,06,29.70
2009,06,03,14,07,29.70
2009,06,03,14,08,29.70
2009,06,03,14,09,29.70
2009,06,03,14,10,29.70
2009,06,03,14,11,29.70
2009,06,03,14,12,29.70
2009,06,03,14,13,29.70
2009,06,03,14,14,29.60
2009,06,03,14,15,29.60
2009,06,03,14,16,29.40
2009,06,03,14,17,29.40
2009,06,03,14,18,29.40
2009,06,03,14,19,29.40
2009,06,03,14,20,29.40
2009,06,03,14,21,29.60
2009,06,03,14,22,29.70
2009,06,03,14,23,29.80
2009,06,03,14,24,29.90
2009,06,03,14,25,29.90
2009,06,03,14,26,29.80
2009,06,03,14,27,29.70
2009,06,03,14,28,29.50
2009,06,03,14,29,29.30
2009,06,03,14,30,29.30
2009,06,03,14,31,29.40
2009,06,03,14,32,29.40
2009,06,03,14,33,29.40
2009,06,03,14,34,29.40
2009,06,03,14,35,29.50
2009,06,03,14,36,29.60
2009,06,03,14,37,29.60
2009,06,03,14,38,29.70
2009,06,03,14,39,29.70
2009,06,03,14,40,29.50
2009,06,03,14,41,29.40
2009,06,03,14,42,29.40
2009,06,03,14,43,29.60
2009,06,03,14,44,29.70
2009,06,03,14,45,29.70
2009,06,03,14,46,29.70
2009,06,03,14,47,29.80
2009,06,03,14,48,29.80
2009,06,03,14,49,29.80
2009,06,03,14,50,29.80
2009,06,03,14,51,29.70
2009,06,03,14,52,29.60
2009,06,03,14,53,29.40
2009,06,03,14,54,29.30
2009,06,03,14,55,29.30
2009,06,03,14,56,29.40
2009,06,03,14,57,29.50
2009,06,03,14,58,29.60
2009,06,03,14,59,29.60
2009,06,03,15,00,29.70
2009,06,03,15,01,29.70
2009,06,03,15,02,29.80
2009,06,03,15,03,29.90
2009,06,03,15,04,29.90
2009,06,03,15,05,29.90
2009,06,03,15,06,30.10
2009,06,03,15,07,30.10
2009,06,03,15,08,30.20
2009,06,03,15,09,30.30
2009,06,03,15,10,30.60
2009,06,03,15,11,30.70
2009,06,03,15,12,30.60
2009,06,03,15,13,30.50
2009,06,03,15,14,30.40
2009,06,03,15,15,30.40
2009,06,03,15,16,30.60
2009,06,03,15,17,30.70
2009,06,03,15,18,30.60
2009,06,03,15,19,30.60
2009,06,03,15,20,30.60
2009,06,03,15,21,30.30
2009,06,03,15,22,30.20
2009,06,03,15,23,30.00
2009,06,03,15,24,30.00
2009,06,03,15,25,30.10
2009,06,03,15,26,30.20
2009,06,03,15,27,30.20
2009,06,03,15,28,30.20
2009,06,03,15,29,30.20
2009,06,03,15,30,30.20
2009,06,03,15,31,30.40
2009,06,03,15,32,30.60
2009,06,03,15,33,30.60
2009,06,03,15,34,30.60
2009,06,03,15,35,30.50
2009,06,03,15,36,30.20
2009,06,03,15,37,29.90
2009,06,03,15,38,29.60
2009,06,03,15,39,29.30
2009,06,03,15,40,29.10
2009,06,03,15,41,28.90
2009,06,03,15,42,28.80
2009,06,03,15,43,28.90
2009,06,03,15,44,29.00
2009,06,03,15,45,29.20
2009,06,03,15,46,29.30
2009,06,03,15,47,29.40
2009,06,03,15,48,29.40
2009,06,03,15,49,29.50
2009,06,03,15,50,29.50
2009,06,03,15,51,29.40
2009,06,03,15,52,29.40
2009,06,03,15,53,29.30
2009,06,03,15,54,29.20
2009,06,03,15,55,29.10
2009,06,03,15,56,28.90
2009,06,03,15,57,28.90
2009,06,03,15,58,29.00
2009,06,03,15,59,29.20
2009,06,03,16,00,29.10
2009,06,03,16,01,29.10
2009,06,03,16,02,29.20
2009,06,03,16,03,29.10
2009,06,03,16,04,29.10
2009,06,03,16,05,29.10
2009,06,03,16,06,29.10
2009,06,03,16,07,29.20
2009,06,03,16,08,29.30
2009,06,03,16,09,29.30
2009,06,03,16,10,29.30
2009,06,03,16,11,29.30
2009,06,03,16,12,29.40
2009,06,03,16,13,29.50
2009,06,03,16,14,29.50
2009,06,03,16,15,29.40
2009,06,03,16,16,29.20
2009,06,03,16,17,29.10
2009,06,03,16,18,29.00
2009,06,03,16,19,28.90
2009,06,03,16,20,28.90
2009,06,03,16,21,28.90
2009,06,03,16,22,28.90
2009,06,03,16,23,28.90
2009,06,03,16,24,29.00
2009,06,03,16,25,29.10
2009,06,03,16,26,29.00
2009,06,03,16,27,29.00
2009,06,03,16,28,29.10
2009,06,03,16,29,29.10
2009,06,03,16,30,29.10
2009,06,03,16,31,29.10
2009,06,03,16,32,29.20
2009,06,03,16,33,29.30
2009,06,03,16,34,29.40
2009,06,03,16,35,29.60
2009,06,03,16,36,29.60
2009,06,03,16,37,29.60
2009,06,03,16,38,29.70
2009,06,03,16,39,29.70
2009,06,03,16,40,29.60
2009,06,03,16,41,29.50
2009,06,03,16,42,29.40
2009,06,03,16,43,29.40
2009,06,03,16,44,29.30
2009,06,03,16,45,29.30
2009,06,03,16,46,29.30
2009,06,03,16,47,29.30
2009,06,03,16,48,29.40
2009,06,03,16,49,29.50
2009,06,03,16,50,29.60
2009,06,03,16,51,29.60
2009,06,03,16,52,29.70
2009,06,03,16,53,29.80
2009,06,03,16,54,29.80
2009,06,03,16,55,29.80
2009,06,03,16,56,29.70
2009,06,03,16,57,29.70
2009,06,03,16,58,29.70
2009,06,03,16,59,29.70
2009,06,03,17,00,29.80
2009,06,03,17,01,29.80
2009,06,03,17,02,29.90
2009,06,03,17,03,30.00
2009,06,03,17,04,30.10
2009,06,03,17,05,30.20
2009,06,03,17,06,30.30
2009,06,03,17,07,30.50
2009,06,03,17,08,30.60
2009,06,03,17,09,30.70
2009,06,03,17,10,30.70
2009,06,03,17,11,30.50
2009,06,03,17,12,30.30
2009,06,03,17,13,30.30
2009,06,03,17,14,30.30
2009,06,03,17,15,30.40
2009,06,03,17,16,30.50
2009,06,03,17,17,30.60
2009,06,03,17,18,30.70
2009,06,03,17,19,30.80